Weather History for Harrisburg, IL

Change the Weather History Date:

Monday, February 18, 2013

  Actual Average (KMWA) Record (KMWA)
Temperature  
Mean Temperature 46 °F -  
Max Temperature 59 °F 45 °F 69 °F (1971)
Min Temperature 33 °F 27 °F -8 °F (1993)
Degree Days  
Heating Degree Days 19    
Moisture  
Dew Point 38 °F    
Average Humidity 72    
Maximum Humidity 93    
Minimum Humidity 42    
Precipitation  
Precipitation 0.52 in - - ()
Sea Level Pressure  
Sea Level Pressure 29.87 in    
Wind  
Wind Speed 14 mph (SSW)    
Max Wind Speed 29 mph    
Max Gust Speed 37 mph    
Visibility 9 miles    
Events Rain , Thunderstorm    
Averages and records for this station are not official NWS values.
T = Trace of Precipitation, MM = Missing Value Source: NWS Daily Summary

Daily Weather History Graph

Daily Weather History Graph

Search for Another Location

Airport:

Trip Planner

Search our weather history database for the weather conditions in past years. The results will help you decide how hot, cold, wet, or windy it might be!

Date:

Astronomy

Feb. 18, 2013 Rise Set
Actual Time 6:39 AM CST 5:36 PM CST
Civil Twilight 6:13 AM CST 6:03 PM CST
Nautical Twilight 5:42 AM CST 6:34 PM CST
Astronomical Twilight 5:12 AM CST 7:04 PM CST
Moon 11:25 AM CST (2/18) 1:16 AM CST (2/18)
Length of Visible Light 11h 50m
Length of Day
10h 56m
First Quarter, 58% of the Moon is Illuminated
Feb 18
First Quarter
Feb 25
Full
Mar 4
Last Quarter
Mar 11
New
Mar 19
First Quarter

Hourly Weather History & Observations

Time (CST) Temp. Windchill Dew Point Humidity Pressure Visibility Wind Dir Wind Speed Gust Speed Precip Events Conditions
12:15 AM 33.8 °F 27.7 °F 26.6 °F 75% 30.04 in 10.0 mi ESE 6.9 mph - N/A   Clear
12:35 AM 33.8 °F 27.0 °F 26.6 °F 75% 30.03 in 10.0 mi ESE 8.1 mph - N/A   Clear
12:55 AM 33.8 °F 28.6 °F 26.6 °F 75% 30.03 in 10.0 mi SE 5.8 mph - N/A   Clear
1:15 AM 37.4 °F 30.8 °F 26.6 °F 65% 30.02 in 10.0 mi South 9.2 mph - N/A   Clear
1:35 AM 39.2 °F 32.0 °F 26.6 °F 61% 30.01 in 10.0 mi South 11.5 mph - N/A   Clear
1:55 AM 37.4 °F 30.3 °F 26.6 °F 65% 30.01 in 10.0 mi South 10.4 mph - N/A   Clear
2:15 AM 41.0 °F 34.7 °F 26.6 °F 57% 30.00 in 10.0 mi South 10.4 mph - N/A   Clear
2:35 AM 41.0 °F 34.7 °F 26.6 °F 57% 30.00 in 10.0 mi South 10.4 mph - N/A   Clear
2:55 AM 39.2 °F 33.6 °F 26.6 °F 61% 29.99 in 10.0 mi South 8.1 mph - N/A   Clear
3:15 AM 41.0 °F 36.4 °F 26.6 °F 57% 29.98 in 10.0 mi South 6.9 mph - N/A   Clear
3:35 AM 41.0 °F 35.2 °F 28.4 °F 61% 29.98 in 10.0 mi SSW 9.2 mph - N/A   Clear
3:55 AM 42.8 °F 36.6 °F 28.4 °F 57% 29.98 in 10.0 mi SSW 11.5 mph 17.3 mph N/A   Clear
4:15 AM 42.8 °F 36.2 °F 30.2 °F 61% 29.98 in 10.0 mi SSW 12.7 mph 20.7 mph N/A   Clear
4:35 AM 42.8 °F 35.8 °F 30.2 °F 61% 29.98 in 10.0 mi SSW 13.8 mph 17.3 mph N/A   Clear
4:55 AM 42.8 °F 36.2 °F 30.2 °F 61% 29.98 in 10.0 mi SSW 12.7 mph 20.7 mph N/A   Clear
5:15 AM 42.8 °F 37.5 °F 32.0 °F 66% 29.98 in 10.0 mi SSW 9.2 mph - N/A   Clear
5:35 AM 42.8 °F 37.0 °F 32.0 °F 66% 29.98 in 10.0 mi SSW 10.4 mph 16.1 mph N/A   Clear
5:55 AM 42.8 °F 36.2 °F 32.0 °F 66% 29.98 in 10.0 mi South 12.7 mph - N/A   Clear
6:15 AM 42.8 °F 35.8 °F 32.0 °F 66% 29.97 in 10.0 mi South 13.8 mph 20.7 mph N/A   Clear
6:35 AM 42.8 °F 35.1 °F 33.8 °F 70% 29.97 in 10.0 mi South 16.1 mph 21.9 mph N/A   Clear
6:55 AM 44.6 °F 37.8 °F 33.8 °F 66% 29.97 in 10.0 mi South 15.0 mph 20.7 mph N/A   Clear
7:15 AM 44.6 °F 38.8 °F 33.8 °F 66% 29.97 in 10.0 mi South 11.5 mph 19.6 mph N/A   Clear
7:35 AM 44.6 °F 36.6 °F 35.6 °F 71% 29.97 in 10.0 mi SSW 19.6 mph 23.0 mph N/A   Clear
7:55 AM 46.4 °F 39.5 °F 35.6 °F 66% 29.97 in 10.0 mi SSW 17.3 mph 26.5 mph N/A   Clear
8:15 AM 46.4 °F 39.8 °F 35.6 °F 66% 29.97 in 10.0 mi SSW 16.1 mph 25.3 mph N/A   Clear
8:35 AM 46.4 °F 39.5 °F 37.4 °F 71% 29.96 in 10.0 mi SSW 17.3 mph 26.5 mph N/A   Clear
8:55 AM 48.2 °F - 37.4 °F 66% 29.96 in 10.0 mi SSW 21.9 mph 26.5 mph N/A   Clear
9:15 AM 50.0 °F - 39.2 °F 66% 29.95 in 10.0 mi SSW 17.3 mph 24.2 mph N/A   Clear
9:35 AM 51.8 °F - 41.0 °F 67% 29.94 in 10.0 mi SSW 28.8 mph 36.8 mph N/A   Clear
9:55 AM 51.8 °F - 41.0 °F 67% 29.93 in 10.0 mi SSW 21.9 mph 31.1 mph N/A   Clear
10:15 AM 53.6 °F - 41.0 °F 62% 29.92 in 10.0 mi SSW 21.9 mph 29.9 mph N/A   Clear
10:35 AM 53.6 °F - 41.0 °F 62% 29.92 in 10.0 mi SSW 23.0 mph 33.4 mph N/A   Clear
10:55 AM 55.4 °F - 41.0 °F 58% 29.92 in 10.0 mi SSW 21.9 mph 31.1 mph N/A   Scattered Clouds
11:15 AM 57.2 °F - 41.0 °F 55% 29.92 in 10.0 mi SSW 21.9 mph 33.4 mph N/A   Mostly Cloudy
11:35 AM 55.4 °F - 39.2 °F 54% 29.91 in 10.0 mi South 25.3 mph 31.1 mph N/A   Overcast
11:55 AM 55.4 °F - 37.4 °F 51% 29.90 in 10.0 mi SSW 21.9 mph 31.1 mph N/A   Mostly Cloudy
12:15 PM 55.4 °F - 37.4 °F 51% 29.89 in 10.0 mi SSW 23.0 mph 29.9 mph N/A   Mostly Cloudy
12:35 PM 55.4 °F - 37.4 °F 51% 29.87 in 10.0 mi SSW 20.7 mph 28.8 mph N/A   Mostly Cloudy
12:55 PM 59.0 °F - 35.6 °F 42% 29.85 in 10.0 mi SSW 20.7 mph 27.6 mph N/A   Mostly Cloudy
1:15 PM 59.0 °F - 35.6 °F 42% 29.83 in 10.0 mi South 16.1 mph 32.2 mph N/A   Overcast
1:35 PM 57.2 °F - 35.6 °F 44% 29.85 in 10.0 mi SSW 21.9 mph 28.8 mph N/A   Overcast
1:55 PM 55.4 °F - 37.4 °F 51% 29.85 in 10.0 mi SSW 21.9 mph 32.2 mph N/A Rain Rain
2:15 PM 51.8 °F - 41.0 °F 67% 29.83 in 7.0 mi South 19.6 mph 33.4 mph 0.01 in Rain Rain
2:35 PM 51.8 °F - 41.0 °F 67% 29.83 in 10.0 mi South 21.9 mph 35.7 mph 0.02 in Rain Light Rain
2:55 PM 50.0 °F - 42.8 °F 76% 29.81 in 10.0 mi South 17.3 mph 27.6 mph 0.02 in Rain Rain
3:15 PM 50.0 °F - 44.6 °F 82% 29.79 in 10.0 mi South 15.0 mph 27.6 mph 0.02 in Rain Light Rain
3:35 PM 50.0 °F - 44.6 °F 82% 29.79 in 10.0 mi South 20.7 mph 26.5 mph 0.02 in Rain Light Rain
3:55 PM 50.0 °F - 44.6 °F 82% 29.77 in 10.0 mi South 19.6 mph 23.0 mph 0.02 in Rain , Thunderstorm Light Thunderstorms and Rain
4:15 PM 50.0 °F - 44.6 °F 82% 29.75 in 10.0 mi South 17.3 mph - N/A   Drizzle
4:35 PM 50.0 °F - 44.6 °F 82% 29.75 in 10.0 mi South 16.1 mph 32.2 mph N/A Rain Light Rain
5:15 PM 48.2 °F - 44.6 °F 87% 29.72 in 4.0 mi South 20.7 mph 31.1 mph 0.03 in Rain Rain
5:35 PM 48.2 °F - 46.4 °F 93% 29.71 in 4.0 mi South 23.0 mph 35.7 mph 0.05 in Rain Light Rain
5:55 PM 48.2 °F - 46.4 °F 93% 29.71 in 5.0 mi South 16.1 mph 27.6 mph 0.08 in Rain Heavy Rain
6:15 PM 48.2 °F - 46.4 °F 93% 29.71 in 5.0 mi SSE 15.0 mph 25.3 mph 0.07 in Rain Light Rain
6:35 PM 48.2 °F - 46.4 °F 93% 29.70 in 10.0 mi South 13.8 mph 24.2 mph 0.07 in Rain Light Rain
6:55 PM 48.2 °F - 46.4 °F 93% 29.69 in 10.0 mi South 15.0 mph 19.6 mph 0.08 in Rain Light Rain
7:15 PM 48.2 °F - 46.4 °F 93% 29.67 in 7.0 mi South 17.3 mph 27.6 mph 0.01 in Rain Rain
7:35 PM 50.0 °F - 46.4 °F 87% 29.68 in 10.0 mi South 16.1 mph 29.9 mph 0.02 in Rain Rain
7:55 PM 48.2 °F - 46.4 °F 93% 29.68 in 4.0 mi South 17.3 mph 27.6 mph 0.11 in Rain Heavy Rain
8:15 PM 48.2 °F - 46.4 °F 93% 29.70 in 4.0 mi WSW 17.3 mph 20.7 mph 0.13 in Rain Heavy Rain
8:35 PM 48.2 °F - 46.4 °F 93% 29.65 in 7.0 mi SSE 8.1 mph - 0.17 in Rain Light Rain
8:55 PM 48.2 °F - 46.4 °F 93% 29.68 in 10.0 mi SSW 9.2 mph - 0.18 in   Overcast
9:15 PM 48.2 °F - 46.4 °F 93% 29.70 in 10.0 mi SSW 16.1 mph 20.7 mph N/A Rain Rain
9:35 PM 48.2 °F - 46.4 °F 93% 29.70 in 10.0 mi SSW 16.1 mph 21.9 mph 0.01 in Rain Light Rain
9:55 PM 48.2 °F - 46.4 °F 93% 29.72 in 7.0 mi SW 16.1 mph 19.6 mph 0.01 in   Drizzle
10:15 PM 44.6 °F 36.6 °F 42.8 °F 93% 29.76 in 5.0 mi West 19.6 mph 32.2 mph 0.01 in Rain Light Rain
10:35 PM 42.8 °F 34.3 °F 41.0 °F 93% 29.78 in 5.0 mi WNW 19.6 mph 33.4 mph 0.02 in Rain Rain
10:55 PM 41.0 °F 31.6 °F 39.2 °F 93% 29.80 in 10.0 mi WNW 20.7 mph 34.5 mph 0.02 in   Overcast
11:15 PM 41.0 °F 32.2 °F 37.4 °F 87% 29.83 in 10.0 mi WNW 18.4 mph 25.3 mph N/A   Overcast
11:35 PM 41.0 °F 32.8 °F 35.6 °F 81% 29.84 in 10.0 mi WNW 16.1 mph 24.2 mph N/A   Overcast
11:55 PM 41.0 °F 33.5 °F 35.6 °F 81% 29.85 in 10.0 mi WNW 13.8 mph 21.9 mph N/A   Overcast